| time (UTC) | temp F | wind direction | speed MPH | gust MPH | rain 1hr in | rain 24hr in | rain mn in | humidity % | barometer mb |
| 20260906231559 | 98 | 320 | 5.0 | 16.0 | 0.00 | 0.00 | 0.00 | 39 | 1011.1 |
| 20260906230109 | 98 | 320 | 6.0 | 13.0 | 0.00 | 0.00 | 0.00 | 39 | 1011.0 |
| 20260906224602 | 98 | 320 | 10.0 | 14.0 | 0.00 | 0.00 | 0.00 | 38 | 1011.1 |
| 20260906223101 | 98 | 320 | 6.0 | 15.0 | 0.00 | 0.00 | 0.00 | 38 | 1011.0 |
| 20260906221557 | 99 | 320 | 5.0 | 17.0 | 0.00 | 0.00 | 0.00 | 39 | 1011.2 |
| 20260906220055 | 98 | 320 | 6.0 | 12.0 | 0.00 | 0.00 | 0.00 | 40 | 1011.2 |
| 20260906214600 | 99 | 320 | 9.0 | 18.0 | 0.00 | 0.00 | 0.00 | 39 | 1011.4 |
| 20260906213059 | 99 | 320 | 7.0 | 16.0 | 0.00 | 0.00 | 0.00 | 39 | 1011.5 |
| 20260906211557 | 99 | 320 | 7.0 | 13.0 | 0.00 | 0.00 | 0.00 | 40 | 1011.7 |
| 20260906204631 | 99 | 66 | 3.0 | 12.0 | 0.00 | 0.00 | 0.00 | 40 | 1012.0 |
| 20260906203055 | 98 | 320 | 3.0 | 15.0 | 0.00 | 0.00 | 0.00 | 40 | 1012.2 |
| 20260906201615 | 98 | 320 | 5.0 | 11.0 | 0.00 | 0.00 | 0.00 | 42 | 1012.4 |
| 20260906194605 | 97 | 320 | 2.0 | 12.0 | 0.00 | 0.00 | 0.00 | 44 | 1012.6 |
| 20260906193104 | 97 | 320 | 7.0 | 12.0 | 0.00 | 0.00 | 0.00 | 44 | 1012.9 |
| 20260906191553 | 97 | 320 | 4.0 | 12.0 | 0.00 | 0.00 | 0.00 | 45 | 1013.0 |
| 20260906190100 | 97 | 320 | 6.0 | 16.0 | 0.00 | 0.00 | 0.00 | 44 | 1013.3 |
| 20260906184558 | 96 | 320 | 6.0 | 14.0 | 0.00 | 0.00 | 0.00 | 45 | 1013.2 |
| 20260906183104 | 97 | 320 | 4.0 | 14.0 | 0.00 | 0.00 | 0.00 | 46 | 1013.4 |
| 20260906181606 | 96 | 320 | 0.0 | 14.0 | 0.00 | 0.00 | 0.00 | 48 | 1013.6 |
| 20260906180100 | 96 | 320 | 4.0 | 12.0 | 0.00 | 0.00 | 0.00 | 47 | 1013.8 |
| 20260906174613 | 95 | 320 | 5.0 | 11.0 | 0.00 | 0.00 | 0.00 | 54 | 1014.0 |
| 20260906173108 | 94 | 320 | 6.0 | 11.0 | 0.00 | 0.00 | 0.00 | 50 | 1014.3 |
| 20260906171603 | 93 | 320 | 2.0 | 13.0 | 0.00 | 0.00 | 0.00 | 52 | 1014.6 |
| 20260906170111 | 93 | 320 | 7.0 | 14.0 | 0.00 | 0.00 | 0.00 | 53 | 1014.9 |
| 20260906164604 | 93 | 320 | 4.0 | 10.0 | 0.00 | 0.00 | 0.00 | 54 | 1015.0 |
| 20260906163105 | 92 | 320 | 3.0 | 6.0 | 0.00 | 0.00 | 0.00 | 55 | 1015.0 |
| 20260906161609 | 91 | 320 | 3.0 | 9.0 | 0.00 | 0.00 | 0.00 | 58 | 1014.9 |
| 20260906160109 | 90 | 320 | 1.0 | 8.0 | 0.00 | 0.00 | 0.00 | 61 | 1014.9 |
| 20260906154558 | 89 | 320 | 0.0 | 6.0 | 0.00 | 0.00 | 0.00 | 63 | 1015.0 |
| 20260906153121 | 88 | 320 | 2.0 | 6.0 | 0.00 | 0.00 | 0.00 | 64 | 1015.0 |
| 20260906151558 | 87 | 320 | 1.0 | 6.0 | 0.00 | 0.00 | 0.00 | 67 | 1014.8 |
| 20260906150058 | 86 | 320 | 3.0 | 6.0 | 0.00 | 0.00 | 0.00 | 68 | 1014.8 |
| 20260906144615 | 85 | 320 | 4.0 | 8.0 | 0.00 | 0.00 | 0.00 | 69 | 1014.8 |
| 20260906143106 | 85 | 320 | 2.0 | 5.0 | 0.00 | 0.00 | 0.00 | 69 | 1014.6 |
| 20260906141557 | 84 | 0 | 1.0 | 5.0 | 0.00 | 0.00 | 0.00 | 71 | 1014.5 |
| 20260906140110 | 83 | 320 | 2.0 | 5.0 | 0.00 | 0.00 | 0.00 | 73 | 1014.6 |
| 20260906134629 | 82 | 320 | 1.0 | 4.0 | 0.00 | 0.00 | 0.00 | 74 | 1014.4 |
| 20260906133104 | 81 | 0 | 0.0 | 4.0 | 0.00 | 0.00 | 0.00 | 76 | 1014.4 |
| 20260906131606 | 80 | 0 | 2.0 | 5.0 | 0.00 | 0.00 | 0.00 | 77 | 1014.3 |
| 20260906130107 | 79 | 0 | 0.0 | 0.0 | 0.00 | 0.00 | 0.00 | 79 | 1014.3 |
| 20260906124609 | 78 | 0 | 0.0 | 2.0 | 0.00 | 0.00 | 0.00 | 80 | 1014.2 |
| 20260906123058 | 77 | 0 | 0.0 | 2.0 | 0.00 | 0.00 | 0.00 | 81 | 1014.0 |
| 20260906121607 | 77 | 0 | 1.0 | 3.0 | 0.00 | 0.00 | 0.00 | 81 | 1014.0 |
| 20260906120108 | 77 | 320 | 0.0 | 3.0 | 0.00 | 0.00 | 0.00 | 81 | 1014.0 |
| 20260906114622 | 77 | 0 | 1.0 | 4.0 | 0.00 | 0.00 | 0.00 | 80 | 1013.7 |
| 20260906113056 | 77 | 0 | 0.0 | 0.0 | 0.00 | 0.00 | 0.00 | 80 | 1013.5 |
| 20260906111625 | 78 | 0 | 0.0 | 0.0 | 0.00 | 0.00 | 0.00 | 80 | 1013.5 |
| 20260906104604 | 78 | 0 | 0.0 | 0.0 | 0.00 | 0.00 | 0.00 | 79 | 1013.3 |
| 20260906103056 | 78 | 0 | 0.0 | 0.0 | 0.00 | 0.00 | 0.00 | 79 | 1013.3 |
| 20260906101557 | 78 | 0 | 0.0 | 0.0 | 0.00 | 0.00 | 0.00 | 79 | 1013.0 |
| 20260906100058 | 78 | 0 | 0.0 | 0.0 | 0.00 | 0.00 | 0.00 | 78 | 1013.0 |
| 20260906094558 | 79 | 0 | 0.0 | 0.0 | 0.00 | 0.00 | 0.00 | 77 | 1012.8 |
| 20260906093104 | 79 | 0 | 0.0 | 0.0 | 0.00 | 0.00 | 0.00 | 77 | 1012.6 |
| 20260906091552 | 79 | 0 | 0.0 | 0.0 | 0.00 | 0.00 | 0.00 | 76 | 1012.6 |
| 20260906090115 | 79 | 0 | 0.0 | 2.0 | 0.00 | 0.00 | 0.00 | 76 | 1012.5 |
| 20260906084610 | 80 | 320 | 1.0 | 5.0 | 0.00 | 0.00 | 0.00 | 75 | 1012.4 |
| 20260906083056 | 80 | 0 | 1.0 | 4.0 | 0.00 | 0.00 | 0.00 | 75 | 1012.4 |
| 20260906081606 | 80 | 320 | 1.0 | 5.0 | 0.00 | 0.00 | 0.00 | 74 | 1012.6 |
| 20260906074607 | 81 | 320 | 1.0 | 5.0 | 0.00 | 0.00 | 0.00 | 73 | 1012.6 |
| 20260906073107 | 81 | 320 | 3.0 | 8.0 | 0.00 | 0.00 | 0.00 | 73 | 1012.7 |
| 20260906071554 | 82 | 320 | 2.0 | 9.0 | 0.00 | 0.00 | 0.00 | 73 | 1012.7 |
| 20260906070125 | 82 | 320 | 4.0 | 9.0 | 0.00 | 0.00 | 0.00 | 72 | 1013.0 |
| 20260906064556 | 82 | 320 | 3.0 | 9.0 | 0.00 | 0.00 | 0.00 | 72 | 1013.0 |
| 20260906063058 | 83 | 0 | 2.0 | 6.0 | 0.00 | 0.00 | 0.00 | 72 | 1013.1 |
| 20260906061627 | 83 | 320 | 2.0 | 8.0 | 0.00 | 0.00 | 0.00 | 71 | 1013.3 |
| 20260906060056 | 83 | 320 | 2.0 | 6.0 | 0.00 | 0.00 | 0.00 | 71 | 1013.3 |
| 20260906054602 | 84 | 0 | 2.0 | 6.0 | 0.00 | 0.00 | 0.00 | 70 | 1013.2 |
| 20260906053059 | 84 | 320 | 2.0 | 6.0 | 0.00 | 0.00 | 0.00 | 70 | 1013.0 |
| 20260906051604 | 84 | 320 | 2.0 | 6.0 | 0.00 | 0.00 | 0.00 | 70 | 1013.0 |
| 20260906050115 | 84 | 320 | 4.0 | 8.0 | 0.00 | 0.00 | 0.00 | 69 | 1013.0 |
| 20260906044603 | 85 | 0 | 1.0 | 6.0 | 0.00 | 0.00 | 0.00 | 69 | 1013.0 |
| 20260906043109 | 85 | 320 | 3.0 | 8.0 | 0.00 | 0.00 | 0.00 | 68 | 1013.0 |
| 20260906041601 | 85 | 320 | 2.0 | 5.0 | 0.00 | 0.00 | 0.00 | 67 | 1012.9 |
| 20260906040115 | 86 | 320 | 2.0 | 5.0 | 0.00 | 0.00 | 0.00 | 66 | 1012.9 |
| 20260906034559 | 86 | 320 | 2.0 | 6.0 | 0.00 | 0.00 | 0.00 | 65 | 1012.9 |
| 20260906033057 | 86 | 190 | 2.0 | 9.0 | 0.00 | 0.00 | 0.00 | 64 | 1013.0 |
| 20260906031603 | 86 | 320 | 5.0 | 12.0 | 0.00 | 0.00 | 0.00 | 64 | 1013.1 |
| 20260906030107 | 87 | 320 | 2.0 | 15.0 | 0.00 | 0.00 | 0.00 | 63 | 1013.0 |
| 20260906024603 | 87 | 320 | 4.0 | 14.0 | 0.00 | 0.00 | 0.00 | 62 | 1013.0 |
| 20260906023122 | 87 | 320 | 6.0 | 14.0 | 0.00 | 0.00 | 0.00 | 62 | 1012.7 |
| 20260906021600 | 87 | 320 | 6.0 | 11.0 | 0.00 | 0.00 | 0.00 | 61 | 1012.4 |
| 20260906020104 | 88 | 320 | 6.0 | 15.0 | 0.00 | 0.00 | 0.00 | 61 | 1012.2 |
| 20260906014626 | 88 | 320 | 5.0 | 17.0 | 0.00 | 0.00 | 0.00 | 60 | 1011.9 |
| 20260906013100 | 88 | 320 | 8.0 | 19.0 | 0.00 | 0.00 | 0.00 | 59 | 1011.8 |
| 20260906011558 | 89 | 320 | 9.0 | 22.0 | 0.00 | 0.00 | 0.00 | 57 | 1011.5 |
| 20260906010058 | 91 | 320 | 11.0 | 22.0 | 0.00 | 0.00 | 0.00 | 55 | 1011.5 |
| 20260906004613 | 92 | 320 | 9.0 | 19.0 | 0.00 | 0.00 | 0.00 | 53 | 1011.5 |
| 20260906003100 | 95 | 320 | 12.0 | 24.0 | 0.00 | 0.00 | 0.00 | 48 | 1011.3 |
| 20260906001557 | 96 | 320 | 5.0 | 10.0 | 0.00 | 0.00 | 0.00 | 41 | 1011.1 |
| 20260906000107 | 97 | 320 | 5.0 | 13.0 | 0.00 | 0.00 | 0.00 | 41 | 1011.0 |
| 20260905234604 | 98 | 320 | 6.0 | 11.0 | 0.00 | 0.00 | 0.00 | 39 | 1011.0 |
| 20260905233058 | 99 | 320 | 5.0 | 13.0 | 0.00 | 0.00 | 0.00 | 39 | 1010.9 |